This is the latest recevied weather packets stored in our database for station/object KK6LVQ-13. If no packets are shown the sender has not sent any weather packets the latest 10 day(s).
| Time | Temp. | Humidity | Pressure | Rain* | Wind** | Luminosity | Snow |
|---|---|---|---|---|---|---|---|
| 1777770140 | 13.89° C | 83% | 1016.4 hPa | 0 mm | - | 158 W/m² | - |
| 1777769837 | 13.89° C | 83% | 1016.5 hPa | 0 mm | - | 173 W/m² | - |
| 1777769534 | 14.44° C | 82% | 1016.3 hPa | 0 mm | - | 163 W/m² | - |
| 1777769230 | 14.44° C | 82% | 1016.1 hPa | 0 mm | - | 184 W/m² | - |
| 1777768929 | 14.44° C | 82% | 1016.2 hPa | 0 mm | - | 218 W/m² | - |
| 1777768626 | 14.44° C | 81% | 1016.3 hPa | 0 mm | - | 161 W/m² | - |
| 1777768323 | 14.44° C | 81% | 1016.3 hPa | 0 mm | - | 219 W/m² | - |
| 1777768019 | 15° C | 81% | 1016.3 hPa | 0 mm | - | 251 W/m² | - |
| 1777767716 | 15° C | 80% | 1016.4 hPa | 0 mm | - | 171 W/m² | - |
| 1777767412 | 15° C | 80% | 1016.3 hPa | 0 mm | - | 221 W/m² | - |
| 1777767109 | 15.56° C | 79% | 1016.3 hPa | 0 mm | - | 279 W/m² | - |
| 1777766807 | 15.56° C | 78% | 1016.4 hPa | 0 mm | - | 239 W/m² | - |
| 1777766504 | 16.11° C | 77% | 1016.4 hPa | 0 mm | - | 277 W/m² | - |
| 1777766200 | 16.11° C | 77% | 1016.3 hPa | 0 mm | - | 393 W/m² | - |
| 1777765899 | 16.67° C | 76% | 1016.4 hPa | 0 mm | - | 371 W/m² | - |
| 1777765594 | 16.11° C | 77% | 1016.4 hPa | 0 mm | - | 464 W/m² | - |
| 1777765292 | 17.22° C | 76% | 1016.3 hPa | 0 mm | - | 374 W/m² | - |
| 1777764987 | 16.67° C | 76% | 1016.4 hPa | 0 mm | - | 437 W/m² | - |
| 1777764684 | 16.67° C | 76% | 1016.4 hPa | 0 mm | - | 472 W/m² | - |
| 1777764380 | 16.67° C | 76% | 1016.5 hPa | 0 mm | - | 520 W/m² | - |
| 1777764078 | 17.78° C | 75% | 1016.5 hPa | 0 mm | - | 525 W/m² | - |
| 1777763774 | 17.22° C | 76% | 1016.5 hPa | 0 mm | - | 448 W/m² | - |
| 1777763473 | 17.78° C | 74% | 1016.7 hPa | 0 mm | - | 520 W/m² | - |
| 1777763170 | 17.78° C | 74% | 1016.7 hPa | 0 mm | - | 502 W/m² | - |
| 1777762869 | 17.78° C | 74% | 1016.9 hPa | 0 mm | - | 493 W/m² | - |
* Rain latest hour (hover to see other rain measurements)
** Current wind speed in m/s (hover to see current wind gust speed)